Location: Newark
(35.2672°N, 80.7344°W)
Time: 01:07:20
(UTC+00:00)

Courier 1B Rocket - Visible Passes

Search period start: 21 January 2020 00:00
Search period end: 31 January 2020 00:00
Orbit: 920 x 1202 km, 28.2° (Epoch: 20 January)

Date Brightness Start Highest point End Pass type
(mag) Time Alt. Az. Time Alt. Az. Time Alt. Az.
21 Jan 7.4 01:03:27 10° SW 01:05:04 11° SSW 01:06:41 10° SSW visible
22 Jan 7.3 00:00:39 10° WSW 00:04:19 16° SSW 00:08:01 10° SSE visible
22 Jan 7.1 22:58:53 10° WSW 23:03:35 22° SSW 23:08:15 10° SSE visible
23 Jan 7.7 23:54:15 10° SW 23:55:21 10° SSW 23:56:28 10° SSW visible
